Simultaneous Nadir Overpasses (SNOs) Predictions

Prediction of SNOs between GOES-16 and FY3D Satellite Orbit:

Table of predicted SNOs for the next 14.0 days since TLE Epoch: 7/18/2020
Index Date Time (GOES-16) GOES-16 Lat,Lon FY3D Lat,Lon Distance(km) Time Diff (sec)
1 07/18/2020 06:28:49 -0.02, -75.20 -0.10, -74.84 41.33 80
2 07/20/2020 18:31:31 0.02, -75.21 -0.07, -75.48 30.75 80
3 07/21/2020 18:15:15 0.01, -75.22 1.01, -70.91 492.01 80
4 07/23/2020 06:34:05 -0.01, -75.22 0.20, -76.09 99.65 80
5 07/24/2020 06:17:49 -0.01, -75.23 -0.87, -71.52 423.37 80
6 07/25/2020 18:36:48 0.01, -75.25 -0.30, -76.75 169.95 80
7 07/26/2020 18:20:31 0.01, -75.26 0.72, -72.16 353.50 80
8 07/28/2020 06:39:21 -0.01, -75.28 0.44, -77.36 237.15 80
9 07/29/2020 06:23:05 -0.01, -75.29 -0.57, -72.78 286.33 80
10 07/30/2020 18:42:03 0.02, -75.32 -0.58, -78.00 306.43 80
11 07/31/2020 18:25:47 0.02, -75.33 0.43, -73.42 217.41 80
